Weather History for Ballenas Island, BC

Change the Weather History Date:

Wednesday, April 24, 2013

  Actual Average Record
Temperature  
Mean Temperature 52 °F -  
Max Temperature 57 °F - - ()
Min Temperature 48 °F - - ()
Degree Days  
Heating Degree Days 12    
Growing Degree Days 2 (Base 50)    
Moisture  
Dew Point 43 °F    
Average Humidity 68    
Maximum Humidity 75    
Minimum Humidity 56    
Precipitation  
Precipitation 0.00 in - - ()
Sea Level Pressure  
Sea Level Pressure 30.21 in    
Wind  
Wind Speed 8 mph ()    
Max Wind Speed 13 mph    
Max Gust Speed -    
T = Trace of Precipitation, MM = Missing Value Source: Averaged Metar Reports

Daily Weather History Graph

Daily Weather History Graph

Search for Another Location

Airport:

Trip Planner

Search our weather history database for the weather conditions in past years. The results will help you decide how hot, cold, wet, or windy it might be!

Date:

Astronomy

Apr. 24, 2013 Rise Set
Actual Time 6:06 AM PDT 8:23 PM PDT
Civil Twilight 5:31 AM PDT 8:58 PM PDT
Nautical Twilight 4:48 AM PDT 9:42 PM PDT
Astronomical Twilight 3:58 AM PDT 10:33 PM PDT
Moon 7:31 PM PDT (4/24) 5:19 AM PDT (4/24)
Length of Visible Light 15h 26m
Length of Day
14h 16m
Waxing Gibbous, 98% of the Moon is Illuminated
Apr 24
Waxing Gibbous
Apr 25
Full
May 2
Last Quarter
May 9
New
May 17
First Quarter

Hourly Weather History & Observations

Time (PDT) Temp. Dew Point Humidity Pressure Visibility Wind Dir Wind Speed Gust Speed Precip Events Conditions
12:00 AM 51.4 °F 41.5 °F 69% 30.30 in - West 4.6 mph - N/A   Unknown
1:00 AM 49.8 °F 41.0 °F 72% 30.30 in - WSW 4.6 mph - N/A   Unknown
2:00 AM 52.0 °F 43.2 °F 72% 30.31 in - WSW 12.7 mph - N/A   Unknown
3:00 AM 51.1 °F 41.7 °F 70% 30.30 in - WSW 10.4 mph - N/A   Unknown
4:00 AM 52.2 °F 42.6 °F 70% 30.30 in - West 10.4 mph - N/A   Unknown
5:00 AM 51 °F 41 °F 59% 30.31 in - West 11.5 mph - -  
5:00 AM 51.4 °F 40.8 °F 67% 30.31 in - West 11.5 mph - N/A   Unknown
6:00 AM 50.4 °F 41.0 °F 70% 30.31 in - West 12.7 mph - N/A   Unknown
7:00 AM 48.0 °F 40.1 °F 74% 30.30 in - WSW 10.4 mph - N/A   Unknown
8:00 AM 50.5 °F 41.5 °F 71% 30.30 in - West 10.4 mph - N/A   Unknown
10:00 AM 51.6 °F 43.0 °F 72% 30.28 in - WNW 11.5 mph - N/A   Unknown
11:00 AM 52 °F 44 °F 66% 30.27 in - West 11.5 mph - -  
11:00 AM 51.6 °F 44.1 °F 75% 30.27 in - West 11.5 mph - N/A   Unknown
12:00 PM 52.3 °F 44.6 °F 75% 30.25 in - WNW 12.7 mph - N/A   Unknown
1:00 PM 52.5 °F 44.4 °F 74% 30.22 in - West 11.5 mph - N/A   Unknown
2:00 PM 53.6 °F 43.7 °F 69% 30.19 in - West 9.2 mph - N/A   Unknown
3:00 PM 56.3 °F 46.2 °F 69% 30.17 in - West 8.1 mph - N/A   Unknown
4:00 PM 56.1 °F 44.8 °F 66% 30.14 in - West 8.1 mph - N/A   Unknown
5:00 PM 56 °F 45 °F 56% 30.11 in - West 9.2 mph - -  
5:00 PM 56.3 °F 44.8 °F 65% 30.11 in - West 9.2 mph - N/A   Unknown
6:00 PM 57.6 °F 45.0 °F 63% 30.09 in - West 6.9 mph - N/A   Unknown
8:00 PM 55.6 °F 45.9 °F 70% 30.06 in - West 11.5 mph - N/A   Unknown
9:00 PM 56.3 °F 43.2 °F 61% 30.05 in - SW 10.4 mph - N/A   Unknown
10:00 PM 55.0 °F 42.4 °F 63% 30.05 in - WNW 6.9 mph - N/A   Unknown
11:00 PM 54 °F 43 °F 56% 30.04 in - WSW 12.7 mph - -  
11:00 PM 54.1 °F 42.8 °F 66% 30.04 in - WSW 12.7 mph - N/A   Unknown